Regional Weather Roundup
Issued by NWS

Home | Current Version | Previous Version | Text Only | Print | Product List | Glossary On
Versions: 1 2 3 4 5 6 7 8 9 10 11 12 13 14 15 16 17 18 19 20 21 22 23 24 25 26 27 28 29 30 31 32 33 34 35 36 37 38 39 40 41 42 43 44 45 46 47 48 49 50
000
ASUS43 KDMX 262007
RWRIA

WEATHER ROUNDUP FOR IOWA
NATIONAL WEATHER SERVICE DES MOINES IA
300 PM CDT TUE AUG 26 2014

NOTE: "FAIR" INDICATES FEW OR NO CLOUDS BELOW 12,000 FEET WITH NO
SIGNIFICANT WEATHER AND/OR OBSTRUCTIONS TO VISIBILITY.

* - THESE STATIONS ARE NOT NWS STATIONS...THUS NOT UNDER NWS
QUALITY CONTROL.  THEY ALSO DO NOT REPORT WEATHER SUCH
AS PRECIPITATION OR FOG.

IAZ001>003-012>014-020>022-031>034-043>046-262100-
   NORTHWEST IOWA

CITY           SKY/WX    TMP DP  RH WIND       PRES   REMARKS
CARROLL *      SUNNY     73  61  64 VRB5      30.16F
CHEROKEE *     PTSUNNY   70  59  68 CALM      30.18S
DENISON *      SUNNY     73  63  68 CALM      30.15F
LE MARS *      SUNNY     70  59  68 CALM      30.19S
ORANGE CITY *  SUNNY     72  55  56 CALM      30.19S
SHELDON *      SUNNY     68  57  68 N6        30.19S
SIOUX CITY     CLOUDY    72  61  68 VRB5      30.16F
SPENCER        MOSUNNY   69  55  60 CALM      30.18F
STORM LAKE *   SUNNY     68  61  77 CALM      30.18F
$$

IAZ055>058-069>071-079>083-090>094-262100-
   SOUTHWEST IOWA

CITY           SKY/WX    TMP DP  RH WIND       PRES   REMARKS
ATLANTIC *     SUNNY     75  64  69 NE5G12    30.14F
AUDUBON *      SUNNY     79  70  73 CALM      30.17F HX  81
CLARINDA *     MOSUNNY   81  70  69 VRB5      30.15S HX  84
COUNCIL BLFS * PTSUNNY   73  68  83 CALM      30.14S
CRESTON *      PTSUNNY   77  66  69 VRB7      30.15F
HARLAN  *      SUNNY     75  64  69 E7        30.18F
LAMONI         MOSUNNY   78  68  71 NE9       30.14F HX  80
RED OAK *      SUNNY     77  68  73 NE8       30.14S
SHENANDOAH *   CLOUDY    79  70  73 VRB6      30.14S HX  81
$$

IAZ047>049-059>061-072>074-084-262100-
   CENTRAL IOWA

CITY           SKY/WX    TMP DP  RH WIND       PRES   REMARKS
AMES           MOSUNNY   75  64  68 E5        30.14F
ANKENY *       SUNNY     75  64  69 E7        30.13F
CHARITON *     SUNNY     77  66  69 N6        30.14F
DES MOINES     MOSUNNY   79  63  57 E6        30.13S HX  80
GRINNELL*      PTSUNNY   75  64  69 N7        30.14F
KNOXVILLE *    SUNNY     77  64  65 NE6       30.12F
MARSHALLTOWN   PTSUNNY   75  63  66 VRB3      30.14F
PELLA *        PTSUNNY   79  66  65 NE3       30.14F HX  81
PERRY *          N/A     75  63  64 NE3       30.15F
$$

IAZ004>006-015-016-023>025-035-036-262100-
   NORTH CENTRAL IOWA

CITY           SKY/WX    TMP DP  RH WIND       PRES   REMARKS
ALGONA *       SUNNY     72  57  60 VRB6      30.17F
CLARION *      SUNNY     73  59  60 CALM      30.16F
ESTHERVILLE    MOSUNNY   70  55  59 VRB3      30.18F
FORT DODGE *   PTSUNNY   72  57  60 E3        30.17F
MASON CITY     SUNNY     73  55  53 NE7       30.18F
FOREST CITY *  SUNNY     72  55  56 N6        30.17F
IOWA FALLS *     N/A     75  61  60 N3        30.16F
$$

IAZ007>011-017>019-026>030-037>042-050>054-066-262100-
   NORTHEAST IOWA

CITY           SKY/WX    TMP DP  RH WIND       PRES   REMARKS
CEDAR RAPIDS   SUNNY     80  63  55 VRB5      30.12F HX  81
CHARLES CITY * SUNNY     73  55  53 CALM      30.17F
CLINTON *      SUNNY     79  64  61 NE6       30.13F HX  81
DECORAH *      SUNNY     72  59  64 VRB6      30.15F
DUBUQUE        SUNNY     75  61  61 E3        30.13F
MONTICELLO *   SUNNY     77  64  65 NW5       30.13F
OELWEIN *      SUNNY     75  61  60 NW6       30.16F
WATERLOO       SUNNY     77  60  55 VRB6      30.14F
$$

IAZ064-065-067-068-078-262100-
   EAST CENTRAL IOWA

CITY           SKY/WX    TMP DP  RH WIND       PRES   REMARKS
DAVENPORT      SUNNY     80  64  58 N6        30.11F HX  82
IOWA CITY      SUNNY     81  66  60 E3        30.12F HX  83
MT. PLEASANT * MOSUNNY   84  64  51 N9        30.11F HX  86
MUSCATINE *    SUNNY     82  66  57 N9        30.11F HX  85
QUAD CITIES    SUNNY     82  64  54 NE7       30.10F HX  83
$$

IAZ062-063-075>077-085>089-095>099-262100-
   SOUTHEAST IOWA

CITY           SKY/WX    TMP DP  RH WIND       PRES   REMARKS
BURLINGTON     PTSUNNY   85  72  65 N8        30.09F HX  91
FAIRFIELD *    SUNNY     79  66  65 N6        30.12F HX  81
FORT MADISON * SUNNY     86  72  62 NW6       30.10F HX  92
KEOKUK *       SUNNY     84  70  61 CALM      30.08F HX  88
OSKALOOSA *      N/A     79  68  69 N6        30.13S HX  81
CENTERVILLE *  SUNNY     81  70  69 N3        30.14F HX  84
OTTUMWA        MOSUNNY   79  66  64 N6        30.11F HX  81
WASHINGTON *   SUNNY     81  68  65 NE9       30.12F HX  83
$$

ABBREVIATIONS USED IN REMARKS
   TC - TEMPERATURES IN CELSIUS
  WCI - WIND CHILL INDEX
   HX - HEAT INDEX
  VSB - VISIBILITY
$$




USA.gov is the U.S. government's official web portal to all federal, state and local government web resources and services.